Hourly Weather Roundup
Issued by NWS Central Illinois

Home | Current Version | Previous Version | Text Only | Print | Product List | Glossary On
Versions: 1 2 3 4 5 6 7 8 9 10 11 12 13 14 15 16 17 18 19 20 21 22 23 24 25 26 27 28 29 30 31 32 33 34 35 36 37 38 39 40 41 42 43 44 45 46 47 48 49 50
000
NZUS43 KILX 300510
HWRILX

AREA WEATHER ROUNDUP
NATIONAL WEATHER SERVICE, LINCOLN IL
1200 AM CDT MON MAR 30 2015


CITY           SKY/WX    TMP DP  RH WIND       PRES   REMARKS
BLOOMINGTON    CLEAR     46  35  65 NW16      30.03R
CHAMPAIGN      CLEAR     37  35  92 NW6       30.02R WCI  32
DECATUR        CLEAR     49  39  68 W8        30.04R
EFFINGHAM      PTCLDY    45  38  76 SW7       30.07R
FLORA          MOCLDY    49  41  75 SW9       30.07R
GALESBURG      CLEAR     38  31  76 W9        30.04R WCI  31
JACKSONVILLE   CLEAR     45  36  70 W8        30.07R
LACON          CLEAR     43  30  60 W8        30.01R
LAWRENCEVILLE  MOCLDY    50  43  77 W12       30.05R
LITCHFIELD     CLEAR     46  38  74 W9        30.07R
$$


CITY           SKY/WX    TMP DP  RH WIND       PRES   REMARKS
LINCOLN        CLEAR     47  37  69 NW3       30.04R
MACOMB         CLEAR     37  30  78 NW10      30.08R WCI  29
MATTOON        CLEAR     46  39  76 W8        30.02R
MT CARMEL AP   CLOUDY    50  43  76 W10       30.05R
OLNEY-NOBLE AP CLOUDY    48  41  76 SW6       30.06R
PARIS          PTCLDY    45  41  86 W10       30.02R
PEORIA         CLEAR     47  32  56 W6        30.04R
PONTIAC        CLEAR     38  35  90 SW8       30.00R WCI  32
RANTOUL        CLEAR     42  39  89 W3        30.01R
ROBINSON       PTCLDY    48  42  79 W13       30.05R
SPRINGFIELD    CLEAR     43  36  76 W9        30.05R
TAYLORVILLE    CLEAR     43  37  81 W8        30.05S
$$

...REGIONAL REPORTS...


CITY           SKY/WX    TMP DP  RH WIND       PRES   REMARKS
CHICAGO O`HARE PTCLDY    40  33  76 W5        29.93R
KANKAKEE       CLEAR     36  32  85 SW7       29.97S WCI  30
MOLINE         CLEAR     45  30  55 NW12      30.02R
MOUNT VERNON   CLOUDY    50  41  71 SW5       30.09R
PITTSFIELD     CLEAR     48  37  65 W5        30.09R
QUINCY         FAIR      45  35  68 W7        30.08R
ROCKFORD       CLEAR     42  30  62 W15       29.96R WCI  34
$$


CITY           SKY/WX    TMP DP  RH WIND       PRES   REMARKS
BURLINGTON     CLEAR     45  28  51 NW5       30.06R
CEDAR RAPIDS   CLEAR     33  28  81 W10       30.04R WCI  25
DES MOINES     CLEAR     45  23  42 W6        30.11R
KIRKSVILLE     CLEAR     42  34  73 W7        30.11R
OTTUMWA        CLEAR     42  24  49 W7        30.08R
ST LOUIS       PTCLDY    48  38  68 W5        30.09R
$$


CITY           SKY/WX    TMP DP  RH WIND       PRES   REMARKS
TERRE HAUTE    PTCLDY    46  40  79 W10       30.02R
EVANSVILLE     CLOUDY    55  45  68 W13       30.07R
INDIANAPOLIS   CLOUDY    47  40  76 W17       29.96R
LAFAYETTE      MOCLDY    43  33  68 NW9       29.98R
MADISON        CLEAR     37  31  78 W5        29.91R WCI  33
MILWAUKEE      MOCLDY    41  31  67 W10       29.89R WCI  35
$$




USA.gov is the U.S. government's official web portal to all federal, state and local government web resources and services.